When you browse on this site, cookies collect data to enhance your experience and personalize the content and advertising you see.
Visit our Privacy Policy to learn more. By continuing to use the site, you agree to this use of cookies and data.
  • In Lithuania
  • List of Countries
  • For 7 days
  • Water Temperature
  • Satellite Maps
  • Weather Map
  • Weather Widgets
  • user-avatar
    Login

    Hourly Weather Suvodskaya

    Today, 20 June, Thursday

    Time Temperature Precipitation Wind Pressure Humidity
    00:00 +21°C° 0.2 mm 3 mps 755 mmHg 72%
    01:00 +21°C° 0 mm 3 mps 755 mmHg 73%
    02:00 +20°C° 0 mm 3 mps 755 mmHg 75%
    03:00 +20°C° 0 mm 4 mps 755 mmHg 76%
    04:00 +20°C° 0 mm 4 mps 756 mmHg 75%
    05:00 +21°C° 0 mm 4 mps 756 mmHg 75%
    06:00 +21°C° 0 mm 4 mps 756 mmHg 74%
    07:00 +23°C° 0 mm 4 mps 756 mmHg 68%
    08:00 +25°C° 0 mm 4 mps 756 mmHg 62%
    09:00 +27°C° 0 mm 5 mps 756 mmHg 55%
    10:00 +28°C° 0 mm 5 mps 756 mmHg 51%
    11:00 +29°C° 0 mm 5 mps 756 mmHg 46%
    12:00 +30°C° 0 mm 5 mps 756 mmHg 41%
    13:00 +30°C° 0 mm 5 mps 756 mmHg 40%
    14:00 +32°C° 0 mm 5 mps 756 mmHg 39%
    15:00 +32°C° 0 mm 5 mps 756 mmHg 38%
    16:00 +30°C° 0 mm 5 mps 756 mmHg 39%
    17:00 +30°C° 0 mm 5 mps 756 mmHg 41%
    18:00 +30°C° 0 mm 5 mps 756 mmHg 43%
    19:00 +28°C° 0 mm 5 mps 756 mmHg 47%
    20:00 +27°C° 0 mm 5 mps 757 mmHg 51%
    21:00 +25°C° 0 mm 5 mps 757 mmHg 56%
    22:00 +23°C° 0 mm 5 mps 757 mmHg 58%
    23:00 +23°C° 0 mm 5 mps 757 mmHg 60%

    Tomorrow, 21 June, Friday

    Time Temperature Precipitation Wind Pressure Humidity
    00:00 +22°C° 0 mm 4 mps 758 mmHg 62%
    01:00 +22°C° 0 mm 4 mps 758 mmHg 64%
    02:00 +21°C° 0 mm 4 mps 758 mmHg 65%
    03:00 +21°C° 0 mm 4 mps 758 mmHg 67%
    04:00 +21°C° 0 mm 4 mps 758 mmHg 66%
    05:00 +22°C° 0 mm 4 mps 759 mmHg 65%
    06:00 +22°C° 0 mm 5 mps 759 mmHg 64%
    07:00 +25°C° 0 mm 5 mps 759 mmHg 59%
    08:00 +26°C° 0 mm 5 mps 759 mmHg 53%
    09:00 +28°C° 0 mm 5 mps 759 mmHg 47%
    10:00 +29°C° 0 mm 5 mps 759 mmHg 44%
    11:00 +30°C° 0 mm 5 mps 759 mmHg 41%
    12:00 +32°C° 0 mm 5 mps 759 mmHg 38%
    13:00 +32°C° 0 mm 5 mps 759 mmHg 36%
    14:00 +32°C° 0 mm 5 mps 759 mmHg 34%
    15:00 +33°C° 0 mm 5 mps 758 mmHg 32%
    16:00 +32°C° 0 mm 5 mps 758 mmHg 34%
    17:00 +32°C° 0 mm 5 mps 758 mmHg 35%
    18:00 +30°C° 0 mm 4 mps 758 mmHg 37%
    19:00 +29°C° 0 mm 4 mps 759 mmHg 41%
    20:00 +27°C° 0 mm 4 mps 759 mmHg 46%
    21:00 +25°C° 0 mm 4 mps 759 mmHg 51%
    22:00 +25°C° 0 mm 4 mps 759 mmHg 53%
    23:00 +23°C° 0 mm 4 mps 759 mmHg 55%

    Day after tomorrow, 22 June, Saturday

    Time Temperature Precipitation Wind Pressure Humidity
    00:00 +23°C° 0 mm 4 mps 759 mmHg 57%
    01:00 +22°C° 0 mm 4 mps 759 mmHg 59%
    02:00 +22°C° 0 mm 4 mps 759 mmHg 61%
    03:00 +21°C° 0 mm 4 mps 759 mmHg 64%
    04:00 +22°C° 0 mm 4 mps 760 mmHg 63%
    05:00 +22°C° 0 mm 4 mps 760 mmHg 63%
    06:00 +23°C° 0 mm 5 mps 760 mmHg 63%
    07:00 +26°C° 0 mm 4 mps 760 mmHg 57%
    08:00 +27°C° 0 mm 4 mps 760 mmHg 52%
    09:00 +29°C° 0 mm 4 mps 760 mmHg 46%
    10:00 +30°C° 0 mm 4 mps 760 mmHg 42%
    11:00 +32°C° 0 mm 4 mps 760 mmHg 38%
    12:00 +33°C° 0 mm 3 mps 760 mmHg 34%
    13:00 +33°C° 0 mm 3 mps 760 mmHg 33%
    14:00 +34°C° 0 mm 4 mps 759 mmHg 31%
    15:00 +34°C° 0 mm 4 mps 759 mmHg 30%
    16:00 +34°C° 0 mm 4 mps 759 mmHg 32%
    17:00 +33°C° 0 mm 4 mps 759 mmHg 33%
    18:00 +33°C° 0 mm 4 mps 759 mmHg 35%
    19:00 +30°C° 0 mm 4 mps 759 mmHg 39%
    20:00 +28°C° 0 mm 5 mps 759 mmHg 44%
    21:00 +26°C° 0 mm 5 mps 760 mmHg 48%
    22:00 +26°C° 0 mm 5 mps 759 mmHg 50%
    23:00 +25°C° 0 mm 5 mps 759 mmHg 52%

    23 June, Sunday

    Time Temperature Precipitation Wind Pressure Humidity
    00:00 +23°C° 0 mm 4 mps 759 mmHg 54%
    01:00 +23°C° 0 mm 4 mps 759 mmHg 55%
    02:00 +22°C° 0 mm 4 mps 759 mmHg 56%
    03:00 +22°C° 0 mm 4 mps 759 mmHg 58%
    04:00 +22°C° 0 mm 4 mps 759 mmHg 57%
    05:00 +23°C° 0 mm 4 mps 760 mmHg 57%
    06:00 +23°C° 0 mm 4 mps 760 mmHg 56%
    07:00 +26°C° 0 mm 4 mps 760 mmHg 50%
    08:00 +28°C° 0 mm 4 mps 760 mmHg 44%
    09:00 +30°C° 0 mm 3 mps 760 mmHg 38%
    10:00 +31°C° 0 mm 3 mps 760 mmHg 35%
    11:00 +33°C° 0 mm 3 mps 760 mmHg 33%
    12:00 +34°C° 0 mm 3 mps 760 mmHg 30%
    13:00 +34°C° 0 mm 3 mps 759 mmHg 30%
    14:00 +35°C° 0 mm 2 mps 759 mmHg 29%
    15:00 +35°C° 0 mm 2 mps 759 mmHg 28%
    16:00 +35°C° 0 mm 2 mps 759 mmHg 30%
    17:00 +34°C° 0 mm 3 mps 758 mmHg 31%
    18:00 +34°C° 0 mm 3 mps 758 mmHg 33%
    19:00 +31°C° 0 mm 3 mps 758 mmHg 37%
    20:00 +29°C° 0 mm 4 mps 759 mmHg 41%
    21:00 +27°C° 0 mm 4 mps 759 mmHg 45%
    22:00 +27°C° 0 mm 4 mps 759 mmHg 46%
    23:00 +26°C° 0 mm 4 mps 759 mmHg 48%

    24 June, Monday

    Time Temperature Precipitation Wind Pressure Humidity
    00:00 +26°C° 0 mm 4 mps 759 mmHg 49%
    01:00 +26°C° 0 mm 4 mps 759 mmHg 50%
    02:00 +25°C° 0 mm 4 mps 759 mmHg 52%
    03:00 +25°C° 0 mm 4 mps 759 mmHg 54%
    04:00 +25°C° 0 mm 4 mps 759 mmHg 55%
    05:00 +25°C° 0 mm 4 mps 759 mmHg 56%
    06:00 +25°C° 0 mm 4 mps 759 mmHg 57%
    07:00 +27°C° 0 mm 4 mps 759 mmHg 53%
    08:00 +28°C° 0 mm 4 mps 759 mmHg 48%
    09:00 +30°C° 0 mm 4 mps 759 mmHg 44%
    10:00 +32°C° 0 mm 4 mps 759 mmHg 42%
    11:00 +32°C° 0 mm 4 mps 759 mmHg 41%
    12:00 +33°C° 0 mm 3 mps 759 mmHg 39%
    13:00 +32°C° 0 mm 4 mps 759 mmHg 41%
    14:00 +32°C° 0 mm 4 mps 759 mmHg 42%
    15:00 +30°C° 0 mm 4 mps 758 mmHg 44%
    16:00 +30°C° 0 mm 4 mps 758 mmHg 44%
    17:00 +30°C° 0 mm 4 mps 758 mmHg 45%
    18:00 +30°C° 0 mm 3 mps 758 mmHg 46%
    19:00 +29°C° 0 mm 4 mps 758 mmHg 47%
    20:00 +28°C° 0 mm 4 mps 758 mmHg 48%
    21:00 +28°C° 0 mm 4 mps 758 mmHg 49%
    22:00 +27°C° 0 mm 5 mps 758 mmHg 51%
    23:00 +27°C° 0 mm 6 mps 758 mmHg 54%

    25 June, Tuesday

    Time Temperature Precipitation Wind Pressure Humidity
    00:00 +26°C° 0 mm 6 mps 758 mmHg 56%
    01:00 +26°C° 0 mm 5 mps 758 mmHg 57%
    02:00 +26°C° 0 mm 5 mps 758 mmHg 58%
    03:00 +25°C° 0 mm 4 mps 758 mmHg 59%
    04:00 +25°C° 0 mm 5 mps 758 mmHg 65%
    05:00 +24°C° 0 mm 6 mps 758 mmHg 70%
    06:00 +23°C° 0 mm 7 mps 758 mmHg 76%
    07:00 +23°C° 0 mm 7 mps 758 mmHg 76%
    08:00 +23°C° 0 mm 7 mps 758 mmHg 75%
    09:00 +23°C° 0 mm 7 mps 758 mmHg 75%
    10:00 +23°C° 0 mm 7 mps 759 mmHg 76%
    11:00 +23°C° 0 mm 6 mps 759 mmHg 77%
    12:00 +22°C° 0 mm 6 mps 759 mmHg 79%
    13:00 +22°C° 0 mm 6 mps 759 mmHg 79%
    14:00 +22°C° 0 mm 6 mps 759 mmHg 79%
    15:00 +22°C° 0 mm 5 mps 759 mmHg 80%
    16:00 +22°C° 0 mm 5 mps 758 mmHg 77%
    17:00 +22°C° 0 mm 5 mps 758 mmHg 75%
    18:00 +23°C° 0 mm 4 mps 758 mmHg 73%
    19:00 +22°C° 0 mm 4 mps 758 mmHg 74%
    20:00 +21°C° 0 mm 4 mps 758 mmHg 76%
    21:00 +20°C° 0 mm 4 mps 758 mmHg 77%
    22:00 +20°C° 0 mm 4 mps 758 mmHg 77%
    23:00 +20°C° 0 mm 3 mps 758 mmHg 76%
    Show more